User: anonymous   Login
Location: Unspecified
(47.1700°N, 0.0000°E)
Time: 23:04:50
(UTC+00:00)
Language:

NO-84 - Orbit

View from above orbital plane
View from above orbital plane
View from above satellite
View from above satellite

Ground track
Ground track

The orbit data is extracted from the following two-line orbital elements,

1 40654U 15025D   20211.29335121  .00006869  00000-0  83316-4 0  9932
2 40654  54.9868 107.6693 0111036 297.6971  61.2847 15.54928025175536
Epoch (UTC): 29 July 2020 07:02:25
Eccentricity: 0.0111036
inclination: 54.9868°
perigee height: 327 km
apogee height: 477 km
right ascension of ascending node: 107.6693°
argument of perigee: 297.6971°
revolutions per day: 15.54928025
mean anomaly at epoch: 61.2847°
orbit number at epoch: 17553

The dashed part of the orbit path shows where the satellite is in the earth's shadow,  

DLR